Location: *
(46.4000°N, 12.6667°E)
Time: 23:39:44
(UTC+00:00)

Cosmos 1833 Rocket - Pass Details

Date: 09 April 2020
Orbit: 834 x 838 km, 71.0° (Epoch: 29 May)

Event Time Altitude Azimuth Distance (km) Brightness Sun altitude
Exits shadow 20:39:36 51° 67° (ENE) 1,049 3.0 -26.0°
Drops below altitude 10° 20:44:05 10° 33° (NNE) 2,459 5.3 -26.6°
Sets 20:46:33 0° 30° (NNE) 3,397 6.1 -26.8°
